TimeCDT,TemperatureF,Dew PointF,Humidity,Sea Level PressureIn,VisibilityMPH,Wind Direction,Wind SpeedMPH,Gust SpeedMPH,PrecipitationIn,Events,Conditions,WindDirDegrees,DateUTC
12:15 AM,51.3,51.3,100,30.05,5.0,Calm,Calm,-,N/A,,Clear,0,2013-10-12 05:15:00
12:35 AM,51.3,51.3,100,30.05,4.0,Calm,Calm,-,N/A,,Clear,0,2013-10-12 05:35:00
12:55 AM,50.7,50.7,100,30.05,4.0,Calm,Calm,-,N/A,,Clear,0,2013-10-12 05:55:00
1:15 AM,50.7,50.7,100,30.05,5.0,Calm,Calm,-,N/A,,Clear,0,2013-10-12 06:15:00
1:35 AM,50.9,50.9,100,30.05,5.0,Calm,Calm,-,N/A,,Clear,0,2013-10-12 06:35:00
1:55 AM,50.9,50.9,100,30.06,7.0,Calm,Calm,-,N/A,,Clear,0,2013-10-12 06:55:00
2:15 AM,50.9,50.9,100,30.05,5.0,Calm,Calm,-,N/A,,Clear,0,2013-10-12 07:15:00
2:35 AM,50.0,50.0,100,30.05,5.0,Calm,Calm,-,N/A,,Clear,0,2013-10-12 07:35:00
2:55 AM,50.2,50.2,100,30.06,4.0,Calm,Calm,-,N/A,,Clear,0,2013-10-12 07:55:00
3:15 AM,50.2,50.2,100,30.05,0.8,Calm,Calm,-,N/A,,Mist,0,2013-10-12 08:15:00
3:35 AM,49.8,49.8,100,30.05,5.0,Calm,Calm,-,N/A,,Clear,0,2013-10-12 08:35:00
3:55 AM,49.8,49.8,100,30.06,5.0,Calm,Calm,-,N/A,,Clear,0,2013-10-12 08:55:00
6:15 AM,47.7,47.7,100,30.08,7.0,Calm,Calm,-,N/A,,Clear,0,2013-10-12 11:15:00
6:35 AM,47.5,47.5,100,30.08,5.0,Calm,Calm,-,N/A,,Clear,0,2013-10-12 11:35:00
6:55 AM,47.7,47.7,100,30.08,7.0,Calm,Calm,-,N/A,,Clear,0,2013-10-12 11:55:00
7:15 AM,48.0,48.0,100,30.08,7.0,Calm,Calm,-,N/A,,Clear,0,2013-10-12 12:15:00
7:35 AM,48.7,48.7,100,30.09,5.0,Calm,Calm,-,N/A,,Clear,0,2013-10-12 12:35:00
7:55 AM,50.5,50.5,100,30.10,10.0,Calm,Calm,-,N/A,,Clear,0,2013-10-12 12:55:00
8:15 AM,53.1,53.1,100,30.10,10.0,Calm,Calm,-,N/A,,Clear,0,2013-10-12 13:15:00
8:35 AM,55.8,55.0,97,30.10,7.0,Calm,Calm,-,N/A,,Clear,0,2013-10-12 13:35:00
8:55 AM,57.9,55.4,91,30.10,10.0,Calm,Calm,-,N/A,,Clear,0,2013-10-12 13:55:00
9:15 AM,60.4,55.8,85,30.10,10.0,Calm,Calm,-,N/A,,Clear,0,2013-10-12 14:15:00
9:35 AM,63.1,56.3,78,30.10,10.0,Calm,Calm,-,N/A,,Clear,0,2013-10-12 14:35:00
9:55 AM,65.7,56.1,71,30.11,10.0,Calm,Calm,-,N/A,,Clear,0,2013-10-12 14:55:00
10:15 AM,67.6,56.1,67,30.11,10.0,SSW,4.6,-,N/A,,Clear,210,2013-10-12 15:15:00
10:35 AM,70.2,56.5,62,30.11,10.0,SW,3.5,-,N/A,,Clear,230,2013-10-12 15:35:00
10:55 AM,72.3,55.8,56,30.11,10.0,Calm,Calm,-,N/A,,Clear,0,2013-10-12 15:55:00
11:15 AM,73.8,55.0,52,30.11,10.0,Calm,Calm,-,N/A,,Clear,0,2013-10-12 16:15:00
11:35 AM,75.0,53.4,47,30.11,10.0,Calm,Calm,-,N/A,,Clear,0,2013-10-12 16:35:00
11:55 AM,76.3,53.1,44,30.11,5.0,Calm,Calm,-,N/A,,Haze,0,2013-10-12 16:55:00
12:15 PM,77.2,53.2,43,30.11,10.0,Calm,Calm,-,N/A,,Clear,0,2013-10-12 17:15:00
12:35 PM,77.7,52.9,42,30.11,10.0,Calm,Calm,-,N/A,,Clear,0,2013-10-12 17:35:00
12:55 PM,78.4,52.7,41,30.10,10.0,West,4.6,-,N/A,,Clear,260,2013-10-12 17:55:00
1:15 PM,78.8,53.1,41,30.09,10.0,WNW,3.5,-,N/A,,Clear,290,2013-10-12 18:15:00
1:35 PM,78.8,52.7,40,30.09,10.0,WNW,3.5,-,N/A,,Clear,290,2013-10-12 18:35:00
1:55 PM,79.5,52.7,39,30.09,10.0,WNW,3.5,-,N/A,,Scattered Clouds,290,2013-10-12 18:55:00
2:15 PM,79.5,52.5,39,30.09,10.0,Calm,Calm,-,N/A,,Mostly Cloudy,0,2013-10-12 19:15:00
2:35 PM,77.5,52.9,42,30.09,10.0,NW,4.6,-,N/A,,Mostly Cloudy,320,2013-10-12 19:35:00
2:55 PM,76.5,53.4,45,30.09,10.0,NW,3.5,-,N/A,,Scattered Clouds,310,2013-10-12 19:55:00
3:15 PM,76.8,53.2,44,30.08,10.0,West,3.5,-,N/A,,Clear,280,2013-10-12 20:15:00
3:35 PM,77.0,52.9,43,30.08,10.0,Calm,Calm,-,N/A,,Clear,0,2013-10-12 20:35:00
4:15 PM,78.8,52.0,39,30.07,10.0,Calm,Calm,-,N/A,,Clear,0,2013-10-12 21:15:00
4:35 PM,78.1,52.2,40,30.07,10.0,Calm,Calm,-,N/A,,Clear,0,2013-10-12 21:35:00
4:55 PM,76.5,53.4,45,30.07,10.0,Calm,Calm,-,N/A,,Clear,0,2013-10-12 21:55:00
5:15 PM,73.8,55.9,54,30.06,10.0,Calm,Calm,-,N/A,,Clear,0,2013-10-12 22:15:00
5:35 PM,71.4,57.7,62,30.05,10.0,Calm,Calm,-,N/A,,Clear,0,2013-10-12 22:35:00
5:55 PM,70.2,58.3,66,30.06,10.0,Calm,Calm,-,N/A,,Clear,0,2013-10-12 22:55:00
6:15 PM,68.2,58.1,70,30.06,10.0,Calm,Calm,-,N/A,,Clear,0,2013-10-12 23:15:00
6:35 PM,66.7,57.6,72,30.07,10.0,Calm,Calm,-,N/A,,Clear,0,2013-10-12 23:35:00
6:55 PM,65.5,57.7,76,30.07,10.0,Calm,Calm,-,N/A,,Clear,0,2013-10-12 23:55:00
7:15 PM,63.5,57.4,80,30.08,10.0,Calm,Calm,-,N/A,,Clear,0,2013-10-13 00:15:00
7:35 PM,62.8,57.4,82,30.08,10.0,Calm,Calm,-,N/A,,Clear,0,2013-10-13 00:35:00
7:55 PM,62.6,57.4,83,30.09,10.0,Calm,Calm,-,N/A,,Clear,0,2013-10-13 00:55:00
8:15 PM,61.7,57.6,86,30.10,10.0,Calm,Calm,-,N/A,,Clear,0,2013-10-13 01:15:00
8:35 PM,60.4,59.7,97,30.11,10.0,Calm,Calm,-,N/A,,Clear,0,2013-10-13 01:35:00
8:55 PM,59.0,58.8,99,30.11,10.0,Calm,Calm,-,N/A,,Clear,0,2013-10-13 01:55:00
9:15 PM,59.4,59.4,100,30.12,10.0,Calm,Calm,-,N/A,,Clear,0,2013-10-13 02:15:00
9:35 PM,59.2,59.2,100,30.12,10.0,Calm,Calm,-,N/A,,Clear,0,2013-10-13 02:35:00
9:55 PM,58.1,58.1,100,30.13,10.0,Calm,Calm,-,N/A,,Clear,0,2013-10-13 02:55:00
10:15 PM,58.1,58.1,100,30.14,7.0,Calm,Calm,-,N/A,,Clear,0,2013-10-13 03:15:00
10:35 PM,58.1,58.1,100,30.14,7.0,Calm,Calm,-,N/A,,Mostly Cloudy,0,2013-10-13 03:35:00
10:55 PM,57.9,57.9,100,30.14,7.0,Calm,Calm,-,N/A,,Overcast,0,2013-10-13 03:55:00
11:15 PM,58.6,58.6,100,30.14,10.0,Calm,Calm,-,N/A,,Overcast,0,2013-10-13 04:15:00
11:35 PM,59.7,59.7,100,30.14,10.0,Calm,Calm,-,N/A,,Overcast,0,2013-10-13 04:35:00
11:55 PM,59.5,59.5,100,30.14,10.0,Calm,Calm,-,N/A,,Mostly Cloudy,0,2013-10-13 04:55:00